Find Starlink 4724

NORAD ID: 53702 Int'l Des: 2022-107 Owner: SPXS Country: US Constellation: starlink operational
LEOCIRCULAR

当前视图

正在加载3D地球...

About Starlink 4724

Starlink 4724 (NORAD 53702) is a starlink constellation satellite (v1.5) launched Sep 5, 2022 by SPXS of US. It operates in LEO, CIRCULAR orbit with a mass of 305.00 kg.

关于 Starlink 4724

正在加载描述...

即将过境

Passes for default location (London). Set your location on the main map for personalized predictions.

高度历史

Loading altitude history...

两行轨道根数

1 53702U 22107C 26170.88355279 .00000442 00000-0 45911-4 0 9996
2 53702 53.1621 130.1453 0001278 85.3465 274.7672 15.08822500210529
Epoch: Jun 19, 2026 • Age: 8 hours

当前状态

高度 545.5 km
速度 7.60 km/s
星下点 53.14°N, 126.89°W
发射日期 Sep 5, 2022
运行时间 3.7 years
类型 internet

技术详情

分类 Payload
质量 305.00 kg
干质量 290.00 kg
总质量 305.00 kg
长度 0.20 m
直径 2.80 m
跨度 9.00 m
形状 Box + pan
制造商 SPXS
平台类型 Starlink
阶段状态 In Orbit
所有者/国家 SPXS/US

Most Searched